Meteo Giornale » Osservazioni meteo Malaysia » Sibu
ore: 13:00 - Osservazioni Meteo Sibu
Lat. 2° 20' N Lon. 111° 50' E Alt. 8 metri s.l.m.
34 °C
Foschia
Temp. 24 Ore
26 °C
35 °C
Nord
3.7 Km/h
Dew point 24 °C
Umidità 56 %
Visibilità 1 Km
Il sole sorge alle ore 06:27
Il sole tramonta alle ore 18:37
| Data e Ora | Cielo e Fenomeni | T °C | DP °C | Um. % | Pres. hPa | Vis. km | Vento km/h | |
|---|---|---|---|---|---|---|---|---|
| Oggi h: 13:00 | Foschia | 34 | 24 | 56 | 1010 | 1 | N 3.7 | |
| Oggi h: 12:00 | Foschia | 33 | 25 | 62 | 1011 | 1 | N 3.7 | |
| Oggi h: 11:00 | Foschia | 31 | 25 | 70 | 1012 | 1 | N 3.7 | |
| Oggi h: 10:00 | Foschia | 29 | 26 | 83 | 1012 | 1 | N 1.8 | |
| Oggi h: 09:00 | Foschia | 27 | 26 | 94 | 1012 | 0.4 | N 3.7 | |
| Oggi h: 08:00 | Foschia | 26 | 26 | 100 | 1012 | 0.2 | N 3.7 | |
| Oggi h: 07:00 | Foschia | 26 | 25 | 94 | 1011 | 0.3 | N 3.7 | |
| Oggi h: 06:00 | Foschia | 26 | 25 | 94 | 1011 | 0.5 | N 0 | |
| Oggi h: 05:00 | Foschia | 26 | 25 | 94 | 1011 | 0.5 | N 5.5 | |
| Oggi h: 04:00 | Foschia | 26 | 25 | 94 | 1011 | 0.5 | N 3.7 | |
| Oggi h: 03:00 | Foschia | 26 | 26 | 100 | 1010 | 0.5 | N 0 | |
| Oggi h: 02:00 | Foschia | 27 | 26 | 94 | 1010 | 0.5 | N 3.7 | |
| Oggi h: 01:00 | Foschia | 27 | 26 | 94 | 1011 | 0.5 | N 0 | |
| Oggi h: 00:00 | Foschia | 27 | 26 | 94 | 1011 | 0.5 | N 0 | |
| Ieri h: 23:00 | Foschia | 28 | 26 | 88 | 1011 | 0.6 | N 0 | |
| Ieri h: 22:00 | Foschia | 28 | 26 | 88 | 1011 | 0.6 | N 0 | |
| Ieri h: 21:00 | Foschia | 29 | 26 | 83 | 1011 | 0.7 | N 1.8 | |
| Ieri h: 20:00 | Foschia | 30 | 27 | 84 | 1010 | 0.7 | N 3.7 | |
| Ieri h: 19:00 | Foschia | 31 | 27 | 79 | 1009 | 0.7 | N 1.8 | |
| Ieri h: 18:00 | Foschia | 33 | 26 | 66 | 1009 | 0.8 | N 1.8 | |
| Ieri h: 17:00 | Foschia | 34 | 25 | 59 | 1009 | 0.8 | N 3.7 | |
| Ieri h: 16:00 | Foschia | 34 | 25 | 59 | 1009 | 0.8 | N 5.5 | |
| Ieri h: 15:00 | Foschia | 35 | 24 | 53 | 1009 | 2 | N 7.4 | |



